Location: Enikep?du
(16.5133°N, 80.7066°E)
Time: 15:23:21
(UTC+00:00)

GPS 2-17 Rocket1 - Pass Details

Date: 20 January 2020
Orbit: 571 x 659 km, 20.3° (Epoch: 23 February)

Event Time Altitude Azimuth Distance (km) Brightness Sun altitude
Exits shadow 00:26:48 14° 288° (WNW) 1,674 4.6 -10.4°
Maximum altitude 00:30:34 60° 6° (N) 674 3.2 -9.6°
Drops below altitude 10° 00:34:54 10° 87° (E) 1,882 6.8 -8.6°
Sets 00:37:13 0° 91° (E) 2,770 8.1 -8.1°
